星链-32309 (STARLINK-32309)

导读 | 豆包AI

STARLINK-32309是美国SpaceX公司于2024年10月26日发射的星链系列卫星,归属Starlink星座组网。星链项目旨在构建全球卫星互联网,该卫星承担着为全球偏远地区、海洋和空中提供高速宽带接入服务的任务,进一步扩充星链星座规模,提升星座覆盖密度与通信服务能力。

基本信息
目录编号:
61676
目录名称:
STARLINK-32309
国际标识:
2024-193R
轨道中心:
EARTH
卫星名称:
星链-32309
卫星全名:
星链-32309 (STARLINK-32309)
卫星状态:
在轨 (已飞行552 天)
发射日期:
2024-10-26 UTC
国别 :
美国 (US)
星等 :
--
轨道信息
数据来源 国际轨道数据 AOE轨道数据
星历时间 2026-04-30T23:06:47+0800
12小时前
查看轨道信息
2026-04-30T07:00:00+0800
1天前
查看轨道信息
半长轴 6853.416km 6853.322km
偏心率 0.0001418 0.0001233
轨道倾角 53.160° 53.159°
近地点辐角 101.805° 77.902°
升交点赤经 209.411° 212.529°
平近点角 258.311° 181.766°
近地点 474.307km 474.339km
远地点 476.251km 476.031km
周期 94.107分钟 94.105分钟
每日圈数 15.301787 15.302102
详细信息
固有亮度:
5
最大亮度:
2.5
卫星平台:
Starlink V1.0
覆盖范围:
全球
运营商:
太空探索技术公司
运营商所在国:
美国
制造商(研发单位):
太空探索技术公司
制造商所在国:
美国
使用方式:
暂无
卫星简介
Starlink 计划是 SpaceX 推出的全球卫星互联网项目,通过发射低轨道卫星,为全球尤其是偏远地区提供高速、低延迟的互联网服务。自 2019 年起,Starlink 已部署数千颗卫星,旨在缩小全球数字鸿沟,推动互联网普及。该项目还为军事、航空等行业提供通信支持,带来广泛经济效益。
2D轨道图
3D轨道图
轨道高度分析图
轨道倾角分析图
轨道综合分析图
查看轨道综合分析图